Regional Weather Roundup
Issued by NWS

Home | Current Version | Previous Version | Text Only | Print | Product List | Glossary On
Versions: 1 2 3 4 5 6 7 8 9 10 11 12 13 14 15 16 17 18 19 20 21 22 23 24 25 26 27 28 29 30 31 32 33 34 35 36 37 38 39 40 41 42 43 44 45 46 47 48 49 50
000
ASUS45 KSLC 251610
RWRUT

UTAH REGIONAL WEATHER ROUNDUP
NATIONAL WEATHER SERVICE SALT LAKE CITY UT
1000 AM MDT MON MAY 25 2015

UTZ001>011-023>025-251700-

NORTHERN UTAH

CITY           SKY/WX    TMP DP  RH WIND       PRES   REMARKS
BRIGHAM CITY   PTSUNNY   58  48  68 CALM      29.98R
HILL AFB       PTSUNNY   55  49  80 E8        29.98R
LOGAN          SUNNY     58  46  64 CALM      29.96S
OGDEN          CLOUDY    57  47  69 S6        29.97R
PROVO AIRPORT  PTSUNNY   55  46  71 CALM      30.00R
SALT LAKE CITY MOSUNNY   57  48  72 SE6       29.97S
VERNAL         LGT RAIN  50  44  80 VRB3      30.01S
WENDOVER       SUNNY     61  48  63 E8        29.97S
HEBER CITY     PTSUNNY   50  43  76 CALM      30.01S
WEST JORDAN    CLOUDY    57  50  77 SE5       29.99R

$$

UTZ012>022-026-027-251700-

SOUTHERN/CENTRAL UTAH

CITY           SKY/WX    TMP DP  RH WIND       PRES   REMARKS
BLANDING       PTSUNNY   54  46  75 CALM      30.09S
BRYCE CANYON   SUNNY     54  37  52 W12       30.08R
CEDAR CITY     SUNNY     57  42  57 SW6       30.02S
DELTA          MOSUNNY   58  46  66 S8        30.01R
HANKSVILLE     PTSUNNY   61  45  55 CALM      29.98S
MILFORD        SUNNY     57  45  64 S15       30.01R
MOAB/CYNLANDS  PTSUNNY   61  45  55 S8        29.95F
PRICE          CLOUDY    55  41  59 VRB7      30.00R
ST GEORGE      PTSUNNY   63  48  59 CALM      30.00S
KANAB          MOSUNNY   55  46  71 S8        30.07S

$$

REGIONAL REPORTS     COLORADO/ARIZONA

CITY           SKY/WX    TMP DP  RH WIND       PRES   REMARKS
CRAIG, CO      CLOUDY    48  41  76 W8        30.02R
GRAND JUNCTION CLOUDY    53  45  74 SE6       30.00R
RIFLE          CLOUDY    48  42  80 CALM      30.03S
MONTROSE       MOSUNNY   52  42  69 CALM      30.04S
CORTEZ         CLOUDY    55  44  66 CALM      30.02S
PAGE, AZ       PTSUNNY   61  48  62 E3        29.99R
GRAND CANYON   CLOUDY    48  44  86 SW3       30.11R
KINGMAN        SUNNY     71  41  33 SW12      29.99R
FLAGSTAFF      CLOUDY    53  41  63 W14       30.11R

$$

REGIONAL REPORTS    NEVADA/IDAHO/WYOMING

CITY           SKY/WX    TMP DP  RH WIND       PRES   REMARKS
LAS VEGAS, NV  MOSUNNY   68  53  58 S6        29.92S
ELY            SUNNY     53  39  59 CALM      30.06S
ELKO           MOSUNNY   53  47  79 S5        30.01S
POCATELLO, ID  PTSUNNY   56  49  77 W8        29.97S
BURLEY         MOSUNNY   62  50  64 VRB3      29.94S
EVANSTON, WY   CLOUDY    46  43  89 SW8       30.03S
ROCK SPRINGS   CLOUDY    46  40  79 SW6       30.02S
KEMMERER       CLOUDY    45  41  87 W6        30.03S

$$


USA.gov is the U.S. government's official web portal to all federal, state and local government web resources and services.